Regional Weather Roundup
Issued by NWS Newport/Morehead, NC

Current Version | Previous Version | Graphics & Text | Print | Product List | Glossary On
Versions: 1 2 3 4 5 6 7 8 9 10 11 12 13 14 15 16 17 18 19 20 21 22 23 24 25 26 27 28 29 30 31 32 33 34 35 36 37 38 39 40 41 42 43 44 45 46 47 48 49 50
000
ASUS42 KMHX 040112
RWRMHX
WEATHER ROUNDUP FOR EASTERN NORTH CAROLINA
NATIONAL WEATHER SERVICE NEWPORT/MOREHEAD CITY NC
900 PM EDT SUN MAY 03 2015

NOTE: "FAIR" INDICATES FEW OR NO CLOUDS BELOW 12,000 FEET
WITH NO SIGNIFICANT WEATHER AND/OR OBSTRUCTIONS TO VISIBILITY

NCZ015>017-031-032-045>047-102-103-040200-
NORTH COAST

CITY           SKY/WX    TMP DP  RH WIND       PRES   REMARKS
EDENTON        PTCLDY    64  56  73 CALM      30.18R
ELIZABETH CITY PTCLDY    63  52  67 S6        30.17R
KITTY HAWK     PTCLDY    67  47  48 S3        30.18R
MANTEO         PTCLDY    64  54  70 S5        30.19R

$$

NCZ045>047-081-094-103-104-040200-
CENTRAL COAST

CITY           SKY/WX    TMP DP  RH WIND       PRES   REMARKS
FRISCO         CLEAR     59  57  93 SW5       30.20R
SWANQUARTER      N/A     66 N/A N/A S6        30.15S

$$

NCZ095-097-098-100-101-040200-
SOUTHERN COAST

CITY           SKY/WX    TMP DP  RH WIND       PRES   REMARKS
BEAUFORT       CLEAR     64  57  78 CALM      30.21R
CEDAR ISLAND     N/A     64 N/A N/A SW6       30.24S
JACKSONVILLE   CLEAR     64  49  57 CALM      30.20R
PINEY ISLAND   CLEAR    N/A N/A N/A S5        30.20R
WILMINGTON     CLEAR     64  50  60 CALM      30.21R


$$

NCZ011>013-027>030-043-044-078>080-089-090>093-098-040200-
COASTAL PLAIN

CITY           SKY/WX    TMP DP  RH WIND       PRES   REMARKS
AHOSKIE        MOCLDY    61  53  75 CALM      30.18R
CLINTON        CLEAR     67  47  48 S3        30.19R
ELIZABETHTOWN  CLEAR     66  44  45 SE5       30.19R
GOLDSBORO      CLEAR     67  46  47 S6        30.17R
GREENVILLE     CLEAR     61  50  67 CALM      30.19S
HAVELOCK       MOCLDY    63  50  62 S5        30.22R
KENANSVILLE    CLEAR     64  44  48 CALM      30.20R
KINSTON        CLEAR     63  50  63 S6        30.20R
NEW BERN       PTCLDY    66  45  46 S5        30.22R
RICHLANDS      CLEAR     63  46  55 S3        30.21R
ROCKY MOUNT    CLEAR     61  54  77 CALM      30.17R
WASHINGTON     CLEAR     68  48  48 S5        30.19R
WHITEVILLE     CLEAR     66  51  57 S3        30.20R

$$

AMZ130-135-150-152-154-156-158-170-250-252-270-ANZ085-086-088-633-658-670-040200-
MARINE OBSERVATIONS

STATION/POSITION TIME  TEMP    WIND        PRES    WAVE   SWELL
                       AIR SEA DIR/SP/G            HT/PER HT/PER
                 (UTC) (F)     (DEG/KT/KT) (MB)    (FT/S) (FT/S)
CHESAPEAKE LIGHT 0100   65     190/ 21/ 21 1021.6
64 E VA BEACH    0050   63 63  200/  8/ 10 1021.3    4/10   5/10
DUCK             0000   71 55  180/ 10/ 13 1020.4
2 E DUCK         0011      60                N/A     4/10   2/13
OREGON INLET     0000   66 64  190/  7/  8 1021.8
13E OREGON INLT  0100      54                N/A     4/13   3/13
HATTERAS CG      0000   66 65  220/  5/  6 1021.9
DIAMOND BUOY     0050   66 62  250/  4/  6 1022.7    5/ 9   5/ 9
CAPE LOOKOUT     0100   67     210/  6/  6 1022.9
BEAUFORT LAB     0000   67 65  230/  1/  4 1021.7
27 SE WRIGHTSVLE 0000   68 72  200/ 12/ 14   N/A
5 SE WRIGHTSVLE  0008   69 68  200/  8/ 10 1022.3
225 S CAPE HAT   0050   69 70   40/ 12/ 16 1023.9    8/13   7/13
41 SE CHARLESTON 0050   72 76  130/  8/ 10 1022.4    2/ 9   2/ 9

$$


USA.gov is the U.S. government's official web portal to all federal, state and local government web resources and services.